Location: ??????????
(54.7560°N, 39.1389°E)
Time: 02:43:11
(UTC+00:00)

BREEZE-M R/B - Pass Details

Date: 19 May 2025
Orbit: 537 x 26537 km, 49.0° (Epoch: 12 June)

Event Time Altitude Azimuth Distance (km) Brightness Sun altitude
Rises 19:57:08 0° 287° (WNW) 9,128 9.1 -13.2°
Reaches altitude 10° 20:06:02 10° 282° (WNW) 5,514 7.8 -13.6°
Maximum altitude 20:15:40 33° 223° (SW) 1,659 4.5 -14.0°
Enters shadow 20:17:58 21° 174° (S) 1,674 4.1 -14.1°
